Total_Precipitation_Accumulation
0.00 0.01 0.07 0.23 0.59 1.02 1.14 0.65 0.46 0.35 0.32 0.41 0.42 0.38 0.43 0.54 0.65 0.88 0.51 0.16 0.05 0.02 0.03 0.07 0.11 0.08 0.07 0.07 0.09 0.11 0.11 0.12 0.10 0.09 0.08 0.06 0.04 0.04 0.05 0.06 0.06 0.06 0.07 0.06 0.05 0.05 0.05 0.05 0.05
0.00 0.01 0.08 0.25 0.73 1.45 1.29 0.60 0.36 0.25 0.33 0.48 0.57 0.51 0.41 0.43 0.32 0.22 0.22 0.26 0.07 0.02 0.02 0.03 0.09 0.09 0.07 0.06 0.09 0.10 0.11 0.11 0.10 0.09 0.08 0.07 0.07 0.06 0.06 0.06 0.07 0.09 0.08 0.06 0.05 0.04 0.04 0.04 0.05
0.00 0.02 0.10 0.24 0.55 0.89 0.87 0.49 0.25 0.22 0.32 0.52 0.58 0.43 0.37 0.43 0.30 0.17 0.14 0.14 0.08 0.04 0.03 0.04 0.06 0.08 0.08 0.08 0.08 0.09 0.09 0.10 0.09 0.09 0.08 0.07 0.07 0.08 0.07 0.08 0.10 0.10 0.08 0.06 0.05 0.04 0.03 0.03 0.05
0.00 0.03 0.10 0.18 0.25 0.34 0.33 0.28 0.23 0.23 0.34 0.40 0.49 0.45 0.32 0.34 0.27 0.19 0.15 0.11 0.08 0.06 0.05 0.07 0.09 0.08 0.08 0.07 0.07 0.07 0.08 0.08 0.09 0.08 0.08 0.07 0.08 0.08 0.09 0.09 0.10 0.10 0.09 0.07 0.05 0.04 0.03 0.05 0.06
0.00 0.02 0.07 0.12 0.16 0.22 0.23 0.25 0.26 0.30 0.38 0.49 0.59 0.61 0.51 0.31 0.25 0.29 0.32 0.24 0.16 0.13 0.10 0.11 0.14 0.13 0.11 0.09 0.09 0.09 0.08 0.08 0.09 0.09 0.09 0.08 0.08 0.10 0.10 0.10 0.09 0.11 0.09 0.08 0.06 0.05 0.05 0.07 0.07
0.00 0.01 0.04 0.06 0.09 0.14 0.21 0.23 0.26 0.34 0.46 0.65 0.67 0.59 0.54 0.40 0.36 0.37 0.35 0.41 0.41 0.28 0.20 0.15 0.18 0.18 0.16 0.14 0.13 0.12 0.11 0.11 0.10 0.09 0.09 0.09 0.10 0.11 0.10 0.10 0.09 0.12 0.13 0.10 0.07 0.05 0.06 0.08 0.09
0.01 0.01 0.02 0.03 0.06 0.09 0.13 0.22 0.32 0.35 0.48 0.64 0.54 0.50 0.60 0.62 0.55 0.48 0.41 0.45 0.39 0.34 0.33 0.27 0.20 0.18 0.19 0.21 0.22 0.19 0.15 0.14 0.12 0.11 0.10 0.09 0.11 0.13 0.13 0.13 0.14 0.14 0.16 0.15 0.12 0.09 0.09 0.09 0.11
0.00 0.01 0.01 0.01 0.02 0.07 0.07 0.13 0.24 0.31 0.46 0.48 0.48 0.62 0.88 0.77 0.49 0.49 0.51 0.50 0.46 0.45 0.42 0.41 0.35 0.29 0.23 0.22 0.25 0.25 0.22 0.20 0.16 0.15 0.14 0.14 0.17 0.18 0.20 0.19 0.20 0.22 0.23 0.23 0.23 0.20 0.18 0.18 0.20
0.00 0.00 0.01 0.00 0.01 0.03 0.07 0.14 0.21 0.29 0.39 0.49 0.61 0.70 0.73 0.61 0.47 0.56 0.67 0.69 0.73 0.65 0.49 0.40 0.42 0.38 0.32 0.25 0.23 0.26 0.27 0.26 0.23 0.24 0.23 0.25 0.35 0.48 0.53 0.52 0.55 0.53 0.50 0.48 0.44 0.44 0.43 0.36 0.28
0.00 0.00 0.00 0.00 0.01 0.02 0.06 0.15 0.28 0.35 0.46 0.69 1.00 1.05 0.73 0.65 0.62 0.69 0.88 0.88 1.07 0.87 0.59 0.51 0.43 0.40 0.34 0.27 0.34 0.38 0.39 0.42 0.38 0.49 0.55 0.62 0.76 0.78 0.65 0.86 0.96 0.93 0.98 0.90 0.86 1.01 0.86 0.64 0.56
0.00 0.00 0.00 0.00 0.01 0.02 0.06 0.13 0.19 0.32 0.64 1.08 1.21 1.07 0.83 0.92 0.94 0.90 1.10 1.09 0.99 0.89 0.90 0.82 0.61 0.53 0.49 0.53 0.46 0.49 0.58 0.73 0.69 0.71 0.85 1.04 0.99 0.83 0.74 0.89 1.19 1.34 1.45 1.39 1.47 1.56 1.17 1.12 1.27
0.00 0.00 0.00 0.01 0.01 0.02 0.03 0.06 0.12 0.33 0.79 0.95 0.93 0.88 0.85 1.04 1.04 1.11 1.34 1.35 1.39 1.20 1.35 1.42 1.00 0.90 0.80 0.79 0.74 0.66 0.70 0.87 1.00 1.16 1.22 1.38 1.40 1.25 1.10 1.13 1.35 1.53 1.69 1.99 1.99 1.87 1.71 1.68 1.59
0.00 0.00 0.00 0.00 0.01 0.05 0.03 0.07 0.23 0.50 0.72 0.63 0.52 0.77 0.83 1.07 1.32 1.52 1.61 1.48 1.75 1.77 1.87 2.06 1.54 1.31 1.26 1.28 1.23 1.05 1.08 1.18 1.28 1.49 1.61 1.71 1.87 1.81 1.71 1.63 1.58 1.49 1.66 1.98 2.17 2.09 2.08 2.03 1.92
0.00 0.00 0.00 0.01 0.02 0.04 0.07 0.15 0.33 0.56 0.52 0.49 0.63 1.03 1.23 1.14 1.41 1.78 1.80 1.79 2.07 2.21 2.30 2.39 2.15 2.01 1.85 1.75 1.74 1.67 1.43 1.43 1.44 1.55 1.60 1.78 1.99 2.21 2.29 2.18 2.00 1.71 1.68 1.78 2.10 2.21 2.35 2.24 2.11
0.00 0.01 0.04 0.06 0.06 0.06 0.09 0.32 0.46 0.53 0.44 0.51 0.75 1.05 1.35 1.28 1.43 1.69 1.85 2.16 2.63 2.93 2.81 2.75 2.62 2.73 2.54 2.27 2.04 1.82 1.72 1.73 1.78 1.80 1.76 1.93 2.17 2.36 2.36 2.15 1.83 1.62 1.70 1.79 1.74 1.79 2.09 1.88 1.74
0.01 0.04 0.14 0.16 0.11 0.09 0.15 0.55 0.65 0.59 0.71 0.82 1.00 1.09 1.28 1.35 1.41 1.61 1.99 2.59 3.23 3.63 3.37 3.14 2.79 2.90 2.89 2.68 2.47 2.18 2.00 2.06 1.96 1.81 1.74 1.81 2.02 2.04 2.06 1.72 1.35 1.42 1.63 1.71 1.68 1.64 1.73 1.71 1.74
0.03 0.07 0.14 0.21 0.15 0.12 0.21 0.75 0.76 0.55 0.79 1.04 0.98 1.05 1.19 1.41 1.51 1.61 2.09 2.72 3.31 3.90 3.92 3.78 3.64 3.34 3.17 3.02 2.83 2.58 2.36 2.08 1.82 1.75 1.68 1.57 1.50 1.51 1.60 1.32 1.19 1.31 1.44 1.48 1.45 1.60 1.69 1.57 1.63
0.06 0.08 0.14 0.21 0.16 0.15 0.27 0.59 0.67 0.67 0.81 0.96 0.95 0.97 1.07 1.30 1.62 1.70 2.02 2.54 3.16 3.77 4.19 4.26 4.06 3.65 3.19 2.83 2.50 2.36 2.18 1.99 1.79 1.65 1.49 1.29 1.19 1.21 1.37 1.26 1.14 1.25 1.33 1.30 1.44 1.56 1.63 1.41 1.38
0.06 0.09 0.18 0.23 0.16 0.17 0.32 0.50 0.63 0.72 0.93 1.04 1.02 0.99 1.02 1.30 1.64 1.82 2.07 2.34 2.94 3.46 3.98 4.08 3.99 3.26 2.60 2.28 2.03 1.90 1.71 1.52 1.51 1.45 1.32 1.26 1.15 1.12 1.28 1.17 1.07 1.06 1.08 1.04 1.18 1.31 1.31 1.08 1.28
0.09 0.12 0.20 0.22 0.14 0.16 0.33 0.59 0.77 0.83 0.79 0.84 0.82 0.87 0.92 1.28 1.68 2.05 2.53 2.76 2.69 3.04 3.56 3.53 3.05 2.48 2.04 1.74 1.59 1.47 1.39 1.25 1.14 1.02 0.96 0.92 0.92 0.95 1.02 1.00 0.88 0.85 0.88 0.85 0.93 1.06 1.06 0.94 1.20
0.12 0.14 0.18 0.16 0.14 0.21 0.39 0.73 0.99 0.91 0.66 0.59 0.61 0.65 0.80 1.12 1.53 1.92 2.33 2.60 2.49 2.70 2.73 2.30 1.93 1.63 1.38 1.21 1.13 1.12 1.05 0.93 0.75 0.63 0.59 0.63 0.67 0.68 0.66 0.66 0.69 0.73 0.73 0.74 0.81 0.96 1.08 0.95 0.97
0.08 0.08 0.07 0.07 0.12 0.28 0.42 0.91 1.24 1.04 0.74 0.59 0.57 0.65 0.73 0.80 0.98 1.26 1.48 1.81 1.99 1.95 1.81 1.63 1.42 1.21 1.08 1.04 0.96 0.96 0.82 0.70 0.59 0.49 0.49 0.50 0.51 0.49 0.47 0.49 0.58 0.65 0.69 0.74 0.68 0.72 0.89 0.94 0.86
0.05 0.04 0.05 0.08 0.12 0.26 0.47 0.77 1.11 1.08 0.94 0.76 0.64 0.64 0.58 0.53 0.60 0.75 0.83 1.00 1.20 1.29 1.26 1.15 1.23 1.21 1.07 0.98 0.90 0.86 0.73 0.60 0.50 0.49 0.53 0.52 0.50 0.47 0.43 0.42 0.44 0.53 0.60 0.66 0.68 0.69 0.75 0.81 0.80
0.04 0.05 0.12 0.25 0.37 0.65 0.64 0.66 0.96 0.90 0.83 0.78 0.63 0.49 0.39 0.35 0.42 0.51 0.53 0.57 0.66 0.75 0.82 0.86 0.94 1.01 0.92 0.84 0.80 0.78 0.70 0.61 0.51 0.47 0.47 0.44 0.44 0.44 0.43 0.42 0.44 0.45 0.46 0.49 0.56 0.62 0.67 0.72 0.75
0.05 0.09 0.31 0.67 0.96 1.05 0.62 0.61 0.81 0.70 0.71 0.74 0.52 0.31 0.25 0.27 0.29 0.36 0.37 0.39 0.45 0.48 0.55 0.59 0.64 0.70 0.69 0.69 0.70 0.69 0.65 0.58 0.50 0.42 0.38 0.36 0.33 0.35 0.39 0.40 0.46 0.51 0.51 0.51 0.52 0.58 0.64 0.71 0.76
0.06 0.07 0.19 0.32 0.44 0.58 0.62 0.98 0.92 0.54 0.53 0.43 0.24 0.14 0.14 0.22 0.21 0.21 0.23 0.27 0.31 0.29 0.34 0.38 0.38 0.41 0.43 0.53 0.58 0.52 0.49 0.42 0.39 0.44 0.41 0.35 0.30 0.32 0.38 0.43 0.46 0.49 0.54 0.56 0.63 0.66 0.71 0.76 0.79
0.05 0.05 0.06 0.09 0.14 0.37 0.70 0.99 0.73 0.38 0.36 0.23 0.13 0.07 0.07 0.09 0.12 0.12 0.12 0.13 0.18 0.19 0.20 0.22 0.27 0.33 0.33 0.35 0.41 0.40 0.38 0.35 0.37 0.42 0.39 0.32 0.30 0.27 0.29 0.35 0.46 0.47 0.50 0.57 0.66 0.71 0.75 0.81 0.86
0.06 0.06 0.06 0.07 0.13 0.28 0.56 0.85 0.79 0.53 0.41 0.23 0.12 0.07 0.06 0.05 0.06 0.07 0.07 0.09 0.13 0.15 0.17 0.20 0.26 0.27 0.27 0.27 0.25 0.23 0.29 0.34 0.40 0.41 0.34 0.29 0.27 0.24 0.26 0.29 0.35 0.39 0.42 0.51 0.64 0.71 0.79 0.91 0.98
0.08 0.08 0.09 0.10 0.12 0.19 0.41 0.59 0.46 0.42 0.30 0.19 0.14 0.13 0.07 0.04 0.04 0.04 0.04 0.07 0.11 0.13 0.16 0.19 0.23 0.25 0.24 0.23 0.23 0.26 0.32 0.33 0.38 0.51 0.48 0.33 0.27 0.24 0.22 0.22 0.23 0.24 0.28 0.36 0.53 0.72 0.84 0.95 1.00
0.09 0.10 0.11 0.14 0.15 0.15 0.23 0.36 0.28 0.26 0.19 0.17 0.13 0.13 0.07 0.04 0.04 0.04 0.05 0.06 0.09 0.14 0.15 0.16 0.21 0.25 0.27 0.27 0.23 0.25 0.31 0.32 0.32 0.37 0.41 0.35 0.29 0.25 0.22 0.20 0.19 0.17 0.19 0.29 0.45 0.62 0.77 0.92 1.03